Year,Month,Day,Hour,Minute,Value (Times are PST for insolation in W/m^2)
2010,04,29,00,00,0.00
2010,04,29,00,01,0.00
2010,04,29,00,02,0.00
2010,04,29,00,03,0.00
2010,04,29,00,04,0.00
2010,04,29,00,05,0.00
2010,04,29,00,06,0.00
2010,04,29,00,07,0.00
2010,04,29,00,08,0.00
2010,04,29,00,09,0.00
2010,04,29,00,10,0.00
2010,04,29,00,11,0.00
2010,04,29,00,12,0.00
2010,04,29,00,13,0.00
2010,04,29,00,14,0.00
2010,04,29,00,15,0.00
2010,04,29,00,16,0.00
2010,04,29,00,17,0.00
2010,04,29,00,18,0.00
2010,04,29,00,19,0.00
2010,04,29,00,20,0.00
2010,04,29,00,21,0.00
2010,04,29,00,22,0.00
2010,04,29,00,23,0.00
2010,04,29,00,24,0.00
2010,04,29,00,25,0.00
2010,04,29,00,26,0.00
2010,04,29,00,27,0.00
2010,04,29,00,28,0.00
2010,04,29,00,29,0.00
2010,04,29,00,30,0.00
2010,04,29,00,31,0.00
2010,04,29,00,32,0.00
2010,04,29,00,33,0.00
2010,04,29,00,34,0.00
2010,04,29,00,35,0.00
2010,04,29,00,36,0.00
2010,04,29,00,37,0.00
2010,04,29,00,38,0.00
2010,04,29,00,39,0.00
2010,04,29,00,40,0.00
2010,04,29,00,41,0.00
2010,04,29,00,42,0.00
2010,04,29,00,43,0.00
2010,04,29,00,44,0.00
2010,04,29,00,45,0.00
2010,04,29,00,46,0.00
2010,04,29,00,47,0.00
2010,04,29,00,48,0.00
2010,04,29,00,49,0.00
2010,04,29,00,50,0.00
2010,04,29,00,51,0.00
2010,04,29,00,52,0.00
2010,04,29,00,53,0.00
2010,04,29,00,54,0.00
2010,04,29,00,55,0.00
2010,04,29,00,56,0.00
2010,04,29,00,57,0.00
2010,04,29,00,58,0.00
2010,04,29,00,59,0.00
2010,04,29,01,00,0.00
2010,04,29,01,01,0.00
2010,04,29,01,02,0.00
2010,04,29,01,03,0.00
2010,04,29,01,04,0.00
2010,04,29,01,05,0.00
2010,04,29,01,06,0.00
2010,04,29,01,07,0.00
2010,04,29,01,08,0.00
2010,04,29,01,09,0.00
2010,04,29,01,10,0.00
2010,04,29,01,11,0.00
2010,04,29,01,12,0.00
2010,04,29,01,13,0.00
2010,04,29,01,14,0.00
2010,04,29,01,15,0.00
2010,04,29,01,16,0.00
2010,04,29,01,17,0.00
2010,04,29,01,18,0.00
2010,04,29,01,19,0.00
2010,04,29,01,20,0.00
2010,04,29,01,21,0.00
2010,04,29,01,22,0.00
2010,04,29,01,23,0.00
2010,04,29,01,24,0.00
2010,04,29,01,25,0.00
2010,04,29,01,26,0.00
2010,04,29,01,27,0.00
2010,04,29,01,28,0.00
2010,04,29,01,29,0.00
2010,04,29,01,30,0.00
2010,04,29,01,31,0.00
2010,04,29,01,32,0.00
2010,04,29,01,33,0.00
2010,04,29,01,34,0.00
2010,04,29,01,35,0.00
2010,04,29,01,36,0.00
2010,04,29,01,37,0.00
2010,04,29,01,38,0.00
2010,04,29,01,39,0.00
2010,04,29,01,40,0.00
2010,04,29,01,41,0.00
2010,04,29,01,42,0.00
2010,04,29,01,43,0.00
2010,04,29,01,44,0.00
2010,04,29,01,45,0.00
2010,04,29,01,46,0.00
2010,04,29,01,47,0.00
2010,04,29,01,48,0.00
2010,04,29,01,49,0.00
2010,04,29,01,50,0.00
2010,04,29,01,51,0.00
2010,04,29,01,52,0.00
2010,04,29,01,53,0.00
2010,04,29,01,54,0.00
2010,04,29,01,55,0.00
2010,04,29,01,56,0.00
2010,04,29,01,57,0.00
2010,04,29,01,58,0.00
2010,04,29,01,59,0.00
2010,04,29,02,00,0.00
2010,04,29,02,01,0.00
2010,04,29,02,02,0.00
2010,04,29,02,03,0.00
2010,04,29,02,04,0.00
2010,04,29,02,05,0.00
2010,04,29,02,06,0.00
2010,04,29,02,07,0.00
2010,04,29,02,08,0.00
2010,04,29,02,09,0.00
2010,04,29,02,10,0.00
2010,04,29,02,11,0.00
2010,04,29,02,12,0.00
2010,04,29,02,13,0.00
2010,04,29,02,14,0.00
2010,04,29,02,15,0.00
2010,04,29,02,16,0.00
2010,04,29,02,17,0.00
2010,04,29,02,18,0.00
2010,04,29,02,19,0.00
2010,04,29,02,20,0.00
2010,04,29,02,21,0.00
2010,04,29,02,22,0.00
2010,04,29,02,23,0.00
2010,04,29,02,24,0.00
2010,04,29,02,25,0.00
2010,04,29,02,26,0.00
2010,04,29,02,27,0.00
2010,04,29,02,28,0.00
2010,04,29,02,29,0.00
2010,04,29,02,30,0.00
2010,04,29,02,31,0.00
2010,04,29,02,32,0.00
2010,04,29,02,33,0.00
2010,04,29,02,34,0.00
2010,04,29,02,35,0.00
2010,04,29,02,36,0.00
2010,04,29,02,37,0.00
2010,04,29,02,38,0.00
2010,04,29,02,39,0.00
2010,04,29,02,40,0.00
2010,04,29,02,41,0.00
2010,04,29,02,42,0.00
2010,04,29,02,43,0.00
2010,04,29,02,44,0.00
2010,04,29,02,45,0.00
2010,04,29,02,46,0.00
2010,04,29,02,47,0.00
2010,04,29,02,48,0.00
2010,04,29,02,49,0.00
2010,04,29,02,50,0.00
2010,04,29,02,51,0.00
2010,04,29,02,52,0.00
2010,04,29,02,53,0.00
2010,04,29,02,54,0.00
2010,04,29,02,55,0.00
2010,04,29,02,56,0.00
2010,04,29,02,57,0.00
2010,04,29,02,58,0.00
2010,04,29,02,59,0.00
2010,04,29,03,00,0.00
2010,04,29,03,01,0.00
2010,04,29,03,02,0.00
2010,04,29,03,03,0.00
2010,04,29,03,04,0.00
2010,04,29,03,05,0.00
2010,04,29,03,06,0.00
2010,04,29,03,07,0.00
2010,04,29,03,08,0.00
2010,04,29,03,09,0.00
2010,04,29,03,10,0.00
2010,04,29,03,11,0.00
2010,04,29,03,12,0.00
2010,04,29,03,13,0.00
2010,04,29,03,14,0.00
2010,04,29,03,15,0.00
2010,04,29,03,16,0.00
2010,04,29,03,17,0.00
2010,04,29,03,18,0.00
2010,04,29,03,19,0.00
2010,04,29,03,20,0.00
2010,04,29,03,21,0.00
2010,04,29,03,22,0.00
2010,04,29,03,23,0.00
2010,04,29,03,24,0.00
2010,04,29,03,25,0.00
2010,04,29,03,26,0.00
2010,04,29,03,27,0.00
2010,04,29,03,28,0.00
2010,04,29,03,29,0.00
2010,04,29,03,30,0.00
2010,04,29,03,31,0.00
2010,04,29,03,32,0.00
2010,04,29,03,33,0.00
2010,04,29,03,34,0.00
2010,04,29,03,35,0.00
2010,04,29,03,36,0.00
2010,04,29,03,37,0.00
2010,04,29,03,38,0.00
2010,04,29,03,39,0.00
2010,04,29,03,40,0.00
2010,04,29,03,41,0.00
2010,04,29,03,42,0.00
2010,04,29,03,43,0.00
2010,04,29,03,44,0.00
2010,04,29,03,45,0.00
2010,04,29,03,46,0.00
2010,04,29,03,47,0.00
2010,04,29,03,48,0.00
2010,04,29,03,49,0.00
2010,04,29,03,50,0.00
2010,04,29,03,51,0.00
2010,04,29,03,52,0.00
2010,04,29,03,53,0.00
2010,04,29,03,54,0.00
2010,04,29,03,55,0.00
2010,04,29,03,56,0.00
2010,04,29,03,57,0.00
2010,04,29,03,58,0.00
2010,04,29,03,59,0.00
2010,04,29,04,00,0.00
2010,04,29,04,01,0.00
2010,04,29,04,02,0.00
2010,04,29,04,03,0.00
2010,04,29,04,04,0.00
2010,04,29,04,05,0.00
2010,04,29,04,06,0.00
2010,04,29,04,07,0.00
2010,04,29,04,08,0.00
2010,04,29,04,09,0.00
2010,04,29,04,10,0.00
2010,04,29,04,11,0.00
2010,04,29,04,12,0.00
2010,04,29,04,13,0.00
2010,04,29,04,14,0.00
2010,04,29,04,15,0.00
2010,04,29,04,16,0.00
2010,04,29,04,17,0.00
2010,04,29,04,18,0.00
2010,04,29,04,19,0.00
2010,04,29,04,20,0.00
2010,04,29,04,21,0.00
2010,04,29,04,22,0.00
2010,04,29,04,23,0.00
2010,04,29,04,24,0.00
2010,04,29,04,25,0.00
2010,04,29,04,26,0.00
2010,04,29,04,27,0.00
2010,04,29,04,28,0.00
2010,04,29,04,29,0.00
2010,04,29,04,30,0.00
2010,04,29,04,31,0.00
2010,04,29,04,32,0.00
2010,04,29,04,33,0.00
2010,04,29,04,34,0.00
2010,04,29,04,35,0.00
2010,04,29,04,36,0.00
2010,04,29,04,37,0.00
2010,04,29,04,38,0.00
2010,04,29,04,39,0.00
2010,04,29,04,40,0.00
2010,04,29,04,41,0.00
2010,04,29,04,42,0.00
2010,04,29,04,43,0.00
2010,04,29,04,44,0.00
2010,04,29,04,45,0.00
2010,04,29,04,46,0.00
2010,04,29,04,47,0.00
2010,04,29,04,48,0.00
2010,04,29,04,49,0.00
2010,04,29,04,50,0.00
2010,04,29,04,51,0.00
2010,04,29,04,52,0.00
2010,04,29,04,53,0.00
2010,04,29,04,54,0.00
2010,04,29,04,55,0.00
2010,04,29,04,56,0.00
2010,04,29,04,57,0.00
2010,04,29,04,58,0.00
2010,04,29,04,59,0.00
2010,04,29,05,00,0.00
2010,04,29,05,01,0.00
2010,04,29,05,02,0.00
2010,04,29,05,03,0.00
2010,04,29,05,04,0.00
2010,04,29,05,05,0.00
2010,04,29,05,06,0.00
2010,04,29,05,07,0.00
2010,04,29,05,08,0.00
2010,04,29,05,09,0.00
2010,04,29,05,10,0.00
2010,04,29,05,11,0.00
2010,04,29,05,12,0.00
2010,04,29,05,13,0.00
2010,04,29,05,14,0.00
2010,04,29,05,15,0.00
2010,04,29,05,16,0.00
2010,04,29,05,17,0.00
2010,04,29,05,18,0.00
2010,04,29,05,19,0.00
2010,04,29,05,20,0.00
2010,04,29,05,21,0.00
2010,04,29,05,22,0.00
2010,04,29,05,23,0.00
2010,04,29,05,24,0.00
2010,04,29,05,25,0.00
2010,04,29,05,26,0.00
2010,04,29,05,27,0.00
2010,04,29,05,28,0.00
2010,04,29,05,29,0.00
2010,04,29,05,30,0.00
2010,04,29,05,31,0.00
2010,04,29,05,32,0.00
2010,04,29,05,33,0.00
2010,04,29,05,34,0.00
2010,04,29,05,35,0.00
2010,04,29,05,36,0.00
2010,04,29,05,37,0.00
2010,04,29,05,38,0.00
2010,04,29,05,39,0.00
2010,04,29,05,40,0.00
2010,04,29,05,41,0.00
2010,04,29,05,42,0.00
2010,04,29,05,43,0.00
2010,04,29,05,44,0.00
2010,04,29,05,45,0.00
2010,04,29,05,46,0.00
2010,04,29,05,47,0.00
2010,04,29,05,48,0.00
2010,04,29,05,49,0.00
2010,04,29,05,50,0.00
2010,04,29,05,51,0.00
2010,04,29,05,52,0.00
2010,04,29,05,53,0.00
2010,04,29,05,54,0.00
2010,04,29,05,55,0.00
2010,04,29,05,56,0.00
2010,04,29,05,57,0.00
2010,04,29,05,58,0.00
2010,04,29,05,59,0.00
2010,04,29,06,00,0.00
2010,04,29,06,01,0.00
2010,04,29,06,02,0.00
2010,04,29,06,03,0.00
2010,04,29,06,04,0.00
2010,04,29,06,05,0.00
2010,04,29,06,06,0.00
2010,04,29,06,07,0.00
2010,04,29,06,08,0.00
2010,04,29,06,09,0.00
2010,04,29,06,10,0.00
2010,04,29,06,11,0.00
2010,04,29,06,12,0.00
2010,04,29,06,13,0.00
2010,04,29,06,14,0.00
2010,04,29,06,15,0.00
2010,04,29,06,16,0.00
2010,04,29,06,17,0.00
2010,04,29,06,18,0.00
2010,04,29,06,19,0.00
2010,04,29,06,20,0.00
2010,04,29,06,21,0.00
2010,04,29,06,22,0.00
2010,04,29,06,23,4.20
2010,04,29,06,24,5.00
2010,04,29,06,25,5.00
2010,04,29,06,26,5.00
2010,04,29,06,27,5.00
2010,04,29,06,28,5.00
2010,04,29,06,29,5.00
2010,04,29,06,30,5.00
2010,04,29,06,31,5.00
2010,04,29,06,32,5.00
2010,04,29,06,33,5.00
2010,04,29,06,34,5.00
2010,04,29,06,35,5.00
2010,04,29,06,36,7.00
2010,04,29,06,37,7.00
2010,04,29,06,38,7.00
2010,04,29,06,39,7.00
2010,04,29,06,40,7.00
2010,04,29,06,41,7.00
2010,04,29,06,42,7.00
2010,04,29,06,43,8.30
2010,04,29,06,44,9.00
2010,04,29,06,45,9.00
2010,04,29,06,46,9.00
2010,04,29,06,47,9.00
2010,04,29,06,48,9.00
2010,04,29,06,49,9.00
2010,04,29,06,50,9.00
2010,04,29,06,51,9.70
2010,04,29,06,52,11.00
2010,04,29,06,53,11.00
2010,04,29,06,54,11.00
2010,04,29,06,55,11.00
2010,04,29,06,56,11.00
2010,04,29,06,57,11.00
2010,04,29,06,58,11.00
2010,04,29,06,59,11.00
2010,04,29,07,00,11.20
2010,04,29,07,01,12.00
2010,04,29,07,02,12.00
2010,04,29,07,03,12.80
2010,04,29,07,04,14.00
2010,04,29,07,05,14.00
2010,04,29,07,06,14.00
2010,04,29,07,07,14.00
2010,04,29,07,08,14.00
2010,04,29,07,09,14.00
2010,04,29,07,10,14.00
2010,04,29,07,11,14.00
2010,04,29,07,12,13.50
2010,04,29,07,13,12.00
2010,04,29,07,14,12.00
2010,04,29,07,15,12.00
2010,04,29,07,16,12.00
2010,04,29,07,17,12.00
2010,04,29,07,18,12.00
2010,04,29,07,19,12.00
2010,04,29,07,20,11.90
2010,04,29,07,21,11.00
2010,04,29,07,22,11.00
2010,04,29,07,23,11.00
2010,04,29,07,24,11.00
2010,04,29,07,25,11.00
2010,04,29,07,26,11.00
2010,04,29,07,27,11.00
2010,04,29,07,28,11.00
2010,04,29,07,29,11.00
2010,04,29,07,30,11.00
2010,04,29,07,31,11.90
2010,04,29,07,32,12.00
2010,04,29,07,33,12.00
2010,04,29,07,34,12.00
2010,04,29,07,35,11.60
2010,04,29,07,36,11.00
2010,04,29,07,37,11.00
2010,04,29,07,38,11.00
2010,04,29,07,39,11.70
2010,04,29,07,40,12.00
2010,04,29,07,41,12.00
2010,04,29,07,42,12.00
2010,04,29,07,43,12.00
2010,04,29,07,44,12.00
2010,04,29,07,45,12.00
2010,04,29,07,46,12.00
2010,04,29,07,47,12.00
2010,04,29,07,48,12.00
2010,04,29,07,49,12.00
2010,04,29,07,50,13.50
2010,04,29,07,51,14.00
2010,04,29,07,52,14.00
2010,04,29,07,53,14.00
2010,04,29,07,54,14.00
2010,04,29,07,55,14.00
2010,04,29,07,56,14.00
2010,04,29,07,57,14.00
2010,04,29,07,58,14.90
2010,04,29,07,59,17.10
2010,04,29,08,00,18.00
2010,04,29,08,01,20.20
2010,04,29,08,02,18.80
2010,04,29,08,03,18.90
2010,04,29,08,04,21.10
2010,04,29,08,05,23.30
2010,04,29,08,06,28.50
2010,04,29,08,07,34.60
2010,04,29,08,08,22.80
2010,04,29,08,09,18.50
2010,04,29,08,10,18.00
2010,04,29,08,11,18.00
2010,04,29,08,12,18.00
2010,04,29,08,13,18.00
2010,04,29,08,14,18.00
2010,04,29,08,15,18.10
2010,04,29,08,16,19.00
2010,04,29,08,17,18.80
2010,04,29,08,18,18.30
2010,04,29,08,19,20.50
2010,04,29,08,20,24.40
2010,04,29,08,21,31.80
2010,04,29,08,22,40.10
2010,04,29,08,23,37.50
2010,04,29,08,24,31.20
2010,04,29,08,25,26.40
2010,04,29,08,26,26.00
2010,04,29,08,27,30.30
2010,04,29,08,28,33.00
2010,04,29,08,29,33.00
2010,04,29,08,30,32.60
2010,04,29,08,31,32.50
2010,04,29,08,32,33.00
2010,04,29,08,33,33.00
2010,04,29,08,34,33.00
2010,04,29,08,35,30.80
2010,04,29,08,36,30.00
2010,04,29,08,37,31.90
2010,04,29,08,38,29.60
2010,04,29,08,39,26.40
2010,04,29,08,40,29.10
2010,04,29,08,41,32.90
2010,04,29,08,42,34.20
2010,04,29,08,43,30.50
2010,04,29,08,44,26.80
2010,04,29,08,45,26.00
2010,04,29,08,46,26.00
2010,04,29,08,47,25.10
2010,04,29,08,48,25.00
2010,04,29,08,49,25.10
2010,04,29,08,50,26.00
2010,04,29,08,51,26.00
2010,04,29,08,52,26.70
2010,04,29,08,53,28.00
2010,04,29,08,54,26.90
2010,04,29,08,55,26.00
2010,04,29,08,56,26.00
2010,04,29,08,57,26.00
2010,04,29,08,58,26.00
2010,04,29,08,59,26.10
2010,04,29,09,00,28.00
2010,04,29,09,01,28.00
2010,04,29,09,02,28.50
2010,04,29,09,03,30.00
2010,04,29,09,04,29.10
2010,04,29,09,05,28.00
2010,04,29,09,06,28.00
2010,04,29,09,07,28.00
2010,04,29,09,08,29.60
2010,04,29,09,09,42.50
2010,04,29,09,10,44.00
2010,04,29,09,11,37.00
2010,04,29,09,12,37.60
2010,04,29,09,13,41.90
2010,04,29,09,14,44.50
2010,04,29,09,15,35.40
2010,04,29,09,16,76.90
2010,04,29,09,17,138.70
2010,04,29,09,18,123.00
2010,04,29,09,19,47.80
2010,04,29,09,20,61.20
2010,04,29,09,21,94.30
2010,04,29,09,22,74.50
2010,04,29,09,23,48.70
2010,04,29,09,24,41.60
2010,04,29,09,25,48.60
2010,04,29,09,26,51.10
2010,04,29,09,27,51.10
2010,04,29,09,28,57.40
2010,04,29,09,29,49.90
2010,04,29,09,30,46.00
2010,04,29,09,31,48.70
2010,04,29,09,32,53.00
2010,04,29,09,33,62.10
2010,04,29,09,34,60.90
2010,04,29,09,35,55.20
2010,04,29,09,36,57.40
2010,04,29,09,37,57.30
2010,04,29,09,38,55.90
2010,04,29,09,39,49.80
2010,04,29,09,40,53.80
2010,04,29,09,41,54.30
2010,04,29,09,42,47.70
2010,04,29,09,43,32.60
2010,04,29,09,44,26.00
2010,04,29,09,45,26.80
2010,04,29,09,46,30.90
2010,04,29,09,47,38.20
2010,04,29,09,48,46.50
2010,04,29,09,49,41.30
2010,04,29,09,50,44.30
2010,04,29,09,51,72.60
2010,04,29,09,52,61.30
2010,04,29,09,53,87.30
2010,04,29,09,54,34.30
2010,04,29,09,55,23.20
2010,04,29,09,56,40.80
2010,04,29,09,57,36.80
2010,04,29,09,58,41.30
2010,04,29,09,59,40.00
2010,04,29,10,00,40.00
2010,04,29,10,01,41.30
2010,04,29,10,02,40.60
2010,04,29,10,03,41.60
2010,04,29,10,04,42.00
2010,04,29,10,05,45.60
2010,04,29,10,06,43.60
2010,04,29,10,07,41.40
2010,04,29,10,08,48.60
2010,04,29,10,09,54.80
2010,04,29,10,10,58.00
2010,04,29,10,11,61.70
2010,04,29,10,12,48.60
2010,04,29,10,13,30.90
2010,04,29,10,14,40.60
2010,04,29,10,15,42.20
2010,04,29,10,16,44.50
2010,04,29,10,17,59.80
2010,04,29,10,18,122.30
2010,04,29,10,19,160.20
2010,04,29,10,20,113.40
2010,04,29,10,21,92.20
2010,04,29,10,22,96.00
2010,04,29,10,23,119.20
2010,04,29,10,24,93.50
2010,04,29,10,25,75.10
2010,04,29,10,26,63.80
2010,04,29,10,27,62.90
2010,04,29,10,28,65.50
2010,04,29,10,29,100.20
2010,04,29,10,30,121.50
2010,04,29,10,31,130.60
2010,04,29,10,32,132.00
2010,04,29,10,33,107.00
2010,04,29,10,34,70.70
2010,04,29,10,35,67.00
2010,04,29,10,36,72.20
2010,04,29,10,37,74.00
2010,04,29,10,38,88.00
2010,04,29,10,39,91.20
2010,04,29,10,40,92.40
2010,04,29,10,41,97.30
2010,04,29,10,42,100.50
2010,04,29,10,43,70.90
2010,04,29,10,44,68.30
2010,04,29,10,45,56.30
2010,04,29,10,46,37.90
2010,04,29,10,47,33.30
2010,04,29,10,48,33.00
2010,04,29,10,49,39.00
2010,04,29,10,50,49.10
2010,04,29,10,51,86.20
2010,04,29,10,52,130.10
2010,04,29,10,53,182.50
2010,04,29,10,54,256.40
2010,04,29,10,55,296.30
2010,04,29,10,56,249.10
2010,04,29,10,57,180.30
2010,04,29,10,58,144.60
2010,04,29,10,59,141.00
2010,04,29,11,00,287.30
2010,04,29,11,01,243.00
2010,04,29,11,02,224.10
2010,04,29,11,03,146.90
2010,04,29,11,04,150.60
2010,04,29,11,05,174.30
2010,04,29,11,06,132.00
2010,04,29,11,07,130.50
2010,04,29,11,08,200.50
2010,04,29,11,09,137.50
2010,04,29,11,10,114.60
2010,04,29,11,11,105.10
2010,04,29,11,12,108.50
2010,04,29,11,13,121.00
2010,04,29,11,14,127.60
2010,04,29,11,15,144.60
2010,04,29,11,16,154.20
2010,04,29,11,17,145.50
2010,04,29,11,18,159.60
2010,04,29,11,19,171.80
2010,04,29,11,20,130.60
2010,04,29,11,21,100.60
2010,04,29,11,22,95.00
2010,04,29,11,23,105.00
2010,04,29,11,24,104.40
2010,04,29,11,25,105.70
2010,04,29,11,26,112.30
2010,04,29,11,27,103.70
2010,04,29,11,28,110.40
2010,04,29,11,29,136.60
2010,04,29,11,30,182.90
2010,04,29,11,31,165.80
2010,04,29,11,32,137.40
2010,04,29,11,33,94.80
2010,04,29,11,34,91.00
2010,04,29,11,35,90.00
2010,04,29,11,36,84.70
2010,04,29,11,37,81.00
2010,04,29,11,38,84.80
2010,04,29,11,39,97.00
2010,04,29,11,40,116.00
2010,04,29,11,41,132.40
2010,04,29,11,42,140.20
2010,04,29,11,43,151.40
2010,04,29,11,44,153.00
2010,04,29,11,45,157.60
2010,04,29,11,46,192.20
2010,04,29,11,47,139.90
2010,04,29,11,48,96.80
2010,04,29,11,49,104.30
2010,04,29,11,50,107.90
2010,04,29,11,51,110.80
2010,04,29,11,52,113.70
2010,04,29,11,53,82.50
2010,04,29,11,54,72.00
2010,04,29,11,55,75.60
2010,04,29,11,56,83.00
2010,04,29,11,57,89.90
2010,04,29,11,58,118.20
2010,04,29,11,59,127.70
2010,04,29,12,00,133.00
2010,04,29,12,01,112.80
2010,04,29,12,02,96.90
2010,04,29,12,03,111.90
2010,04,29,12,04,130.60
2010,04,29,12,05,161.70
2010,04,29,12,06,169.00
2010,04,29,12,07,142.40
2010,04,29,12,08,127.40
2010,04,29,12,09,124.50
2010,04,29,12,10,124.50
2010,04,29,12,11,132.70
2010,04,29,12,12,152.30
2010,04,29,12,13,150.60
2010,04,29,12,14,130.00
2010,04,29,12,15,119.50
2010,04,29,12,16,113.60
2010,04,29,12,17,142.70
2010,04,29,12,18,143.00
2010,04,29,12,19,158.10
2010,04,29,12,20,136.80
2010,04,29,12,21,97.60
2010,04,29,12,22,97.30
2010,04,29,12,23,104.60
2010,04,29,12,24,130.40
2010,04,29,12,25,131.50
2010,04,29,12,26,159.00
2010,04,29,12,27,199.90
2010,04,29,12,28,131.10
2010,04,29,12,29,59.40
2010,04,29,12,30,67.10
2010,04,29,12,31,116.00
2010,04,29,12,32,116.00
2010,04,29,12,33,116.00
2010,04,29,12,34,144.80
2010,04,29,12,35,150.80
2010,04,29,12,36,139.00
2010,04,29,12,37,139.00
2010,04,29,12,38,241.90
2010,04,29,12,39,290.10
2010,04,29,12,40,266.30
2010,04,29,12,41,260.00
2010,04,29,12,42,224.40
2010,04,29,12,43,126.40
2010,04,29,12,44,123.20
2010,04,29,12,45,149.90
2010,04,29,12,46,199.60
2010,04,29,12,47,182.70
2010,04,29,12,48,167.40
2010,04,29,12,49,154.50
2010,04,29,12,50,155.00
2010,04,29,12,51,155.30
2010,04,29,12,52,166.50
2010,04,29,12,53,203.00
2010,04,29,12,54,192.10
2010,04,29,12,55,181.90
2010,04,29,12,56,158.40
2010,04,29,12,57,150.70
2010,04,29,12,58,148.00
2010,04,29,12,59,148.00
2010,04,29,13,00,148.00
2010,04,29,13,01,336.00
2010,04,29,13,02,336.00
2010,04,29,13,03,326.70
2010,04,29,13,04,280.70
2010,04,29,13,05,243.80
2010,04,29,13,06,204.00
2010,04,29,13,07,204.00
2010,04,29,13,08,597.60
2010,04,29,13,09,858.70
2010,04,29,13,10,863.50
2010,04,29,13,11,866.80
2010,04,29,13,12,881.00
2010,04,29,13,13,908.70
2010,04,29,13,14,929.30
2010,04,29,13,15,950.20
2010,04,29,13,16,954.30
2010,04,29,13,17,972.00
2010,04,29,13,18,512.30
2010,04,29,13,19,178.00
2010,04,29,13,20,178.00
2010,04,29,13,21,751.90
2010,04,29,13,22,902.30
2010,04,29,13,23,902.00
2010,04,29,13,24,909.00
2010,04,29,13,25,907.90
2010,04,29,13,26,903.40
2010,04,29,13,27,903.80
2010,04,29,13,28,914.60
2010,04,29,13,29,929.90
2010,04,29,13,30,943.80
2010,04,29,13,31,949.00
2010,04,29,13,32,308.20
2010,04,29,13,33,202.30
2010,04,29,13,34,179.40
2010,04,29,13,35,160.00
2010,04,29,13,36,160.00
2010,04,29,13,37,160.00
2010,04,29,13,38,160.00
2010,04,29,13,39,160.00
2010,04,29,13,40,160.00
2010,04,29,13,41,647.60
2010,04,29,13,42,921.70
2010,04,29,13,43,856.40
2010,04,29,13,44,840.00
2010,04,29,13,45,589.00
2010,04,29,13,46,589.00
2010,04,29,13,47,589.00
2010,04,29,13,48,589.00
2010,04,29,13,49,589.00
2010,04,29,13,50,589.00
2010,04,29,13,51,725.70
2010,04,29,13,52,861.40
2010,04,29,13,53,877.50
2010,04,29,13,54,858.80
2010,04,29,13,55,870.10
2010,04,29,13,56,863.00
2010,04,29,13,57,867.20
2010,04,29,13,58,886.00
2010,04,29,13,59,886.00
2010,04,29,14,00,894.00
2010,04,29,14,01,919.30
2010,04,29,14,02,947.50
2010,04,29,14,03,952.50
2010,04,29,14,04,908.50
2010,04,29,14,05,899.40
2010,04,29,14,06,891.00
2010,04,29,14,07,897.10
2010,04,29,14,08,861.70
2010,04,29,14,09,940.00
2010,04,29,14,10,940.00
2010,04,29,14,11,909.90
2010,04,29,14,12,854.00
2010,04,29,14,13,854.00
2010,04,29,14,14,854.00
2010,04,29,14,15,854.00
2010,04,29,14,16,854.00
2010,04,29,14,17,854.00
2010,04,29,14,18,854.00
2010,04,29,14,19,794.30
2010,04,29,14,20,262.00
2010,04,29,14,21,290.00
2010,04,29,14,22,290.00
2010,04,29,14,23,290.00
2010,04,29,14,24,621.10
2010,04,29,14,25,903.00
2010,04,29,14,26,923.80
2010,04,29,14,27,913.50
2010,04,29,14,28,911.00
2010,04,29,14,29,908.80
2010,04,29,14,30,899.30
2010,04,29,14,31,911.00
2010,04,29,14,32,911.00
2010,04,29,14,33,922.50
2010,04,29,14,34,918.00
2010,04,29,14,35,879.00
2010,04,29,14,36,879.00
2010,04,29,14,37,879.00
2010,04,29,14,38,879.00
2010,04,29,14,39,272.10
2010,04,29,14,40,184.00
2010,04,29,14,41,205.70
2010,04,29,14,42,392.00
2010,04,29,14,43,520.20
2010,04,29,14,44,908.20
2010,04,29,14,45,908.40
2010,04,29,14,46,900.00
2010,04,29,14,47,492.60
2010,04,29,14,48,221.00
2010,04,29,14,49,221.00
2010,04,29,14,50,796.50
2010,04,29,14,51,872.20
2010,04,29,14,52,383.00
2010,04,29,14,53,342.20
2010,04,29,14,54,189.50
2010,04,29,14,55,204.60
2010,04,29,14,56,161.20
2010,04,29,14,57,136.00
2010,04,29,14,58,133.00
2010,04,29,14,59,126.60
2010,04,29,15,00,135.80
2010,04,29,15,01,139.00
2010,04,29,15,02,257.40
2010,04,29,15,03,214.00
2010,04,29,15,04,214.00
2010,04,29,15,05,197.80
2010,04,29,15,06,160.90
2010,04,29,15,07,212.20
2010,04,29,15,08,248.00
2010,04,29,15,09,248.00
2010,04,29,15,10,248.00
2010,04,29,15,11,248.00
2010,04,29,15,12,248.00
2010,04,29,15,13,176.90
2010,04,29,15,14,169.00
2010,04,29,15,15,205.60
2010,04,29,15,16,334.20
2010,04,29,15,17,306.20
2010,04,29,15,18,353.00
2010,04,29,15,19,243.50
2010,04,29,15,20,138.20
2010,04,29,15,21,154.30
2010,04,29,15,22,146.50
2010,04,29,15,23,169.20
2010,04,29,15,24,140.70
2010,04,29,15,25,130.20
2010,04,29,15,26,138.20
2010,04,29,15,27,163.00
2010,04,29,15,28,163.00
2010,04,29,15,29,130.10
2010,04,29,15,30,84.20
2010,04,29,15,31,70.60
2010,04,29,15,32,58.60
2010,04,29,15,33,59.00
2010,04,29,15,34,52.30
2010,04,29,15,35,47.20
2010,04,29,15,36,49.00
2010,04,29,15,37,49.40
2010,04,29,15,38,51.50
2010,04,29,15,39,53.30
2010,04,29,15,40,54.90
2010,04,29,15,41,56.00
2010,04,29,15,42,51.80
2010,04,29,15,43,49.00
2010,04,29,15,44,47.50
2010,04,29,15,45,50.40
2010,04,29,15,46,53.80
2010,04,29,15,47,51.30
2010,04,29,15,48,54.00
2010,04,29,15,49,53.70
2010,04,29,15,50,52.30
2010,04,29,15,51,51.00
2010,04,29,15,52,50.00
2010,04,29,15,53,47.20
2010,04,29,15,54,46.00
2010,04,29,15,55,46.80
2010,04,29,15,56,48.70
2010,04,29,15,57,50.80
2010,04,29,15,58,49.00
2010,04,29,15,59,49.40
2010,04,29,16,00,51.50
2010,04,29,16,01,54.00
2010,04,29,16,02,55.10
2010,04,29,16,03,52.50
2010,04,29,16,04,51.00
2010,04,29,16,05,49.60
2010,04,29,16,06,49.00
2010,04,29,16,07,52.40
2010,04,29,16,08,53.90
2010,04,29,16,09,58.40
2010,04,29,16,10,62.60
2010,04,29,16,11,66.00
2010,04,29,16,12,71.40
2010,04,29,16,13,76.40
2010,04,29,16,14,77.00
2010,04,29,16,15,78.20
2010,04,29,16,16,81.80
2010,04,29,16,17,83.80
2010,04,29,16,18,91.70
2010,04,29,16,19,103.40
2010,04,29,16,20,114.40
2010,04,29,16,21,118.40
2010,04,29,16,22,118.80
2010,04,29,16,23,115.30
2010,04,29,16,24,114.90
2010,04,29,16,25,113.50
2010,04,29,16,26,106.80
2010,04,29,16,27,99.80
2010,04,29,16,28,98.00
2010,04,29,16,29,99.80
2010,04,29,16,30,103.60
2010,04,29,16,31,111.30
2010,04,29,16,32,112.00
2010,04,29,16,33,100.30
2010,04,29,16,34,87.90
2010,04,29,16,35,86.80
2010,04,29,16,36,96.50
2010,04,29,16,37,99.60
2010,04,29,16,38,109.20
2010,04,29,16,39,110.20
2010,04,29,16,40,98.80
2010,04,29,16,41,78.30
2010,04,29,16,42,62.10
2010,04,29,16,43,53.00
2010,04,29,16,44,50.00
2010,04,29,16,45,56.20
2010,04,29,16,46,66.50
2010,04,29,16,47,78.30
2010,04,29,16,48,90.60
2010,04,29,16,49,93.60
2010,04,29,16,50,131.40
2010,04,29,16,51,103.90
2010,04,29,16,52,91.60
2010,04,29,16,53,87.60
2010,04,29,16,54,83.00
2010,04,29,16,55,77.80
2010,04,29,16,56,95.30
2010,04,29,16,57,109.80
2010,04,29,16,58,99.80
2010,04,29,16,59,116.60
2010,04,29,17,00,106.10
2010,04,29,17,01,98.80
2010,04,29,17,02,99.60
2010,04,29,17,03,103.60
2010,04,29,17,04,124.20
2010,04,29,17,05,93.60
2010,04,29,17,06,82.90
2010,04,29,17,07,94.30
2010,04,29,17,08,70.20
2010,04,29,17,09,92.00
2010,04,29,17,10,88.60
2010,04,29,17,11,63.50
2010,04,29,17,12,59.00
2010,04,29,17,13,73.30
2010,04,29,17,14,64.10
2010,04,29,17,15,119.40
2010,04,29,17,16,65.60
2010,04,29,17,17,52.50
2010,04,29,17,18,51.70
2010,04,29,17,19,48.00
2010,04,29,17,20,45.50
2010,04,29,17,21,46.10
2010,04,29,17,22,40.80
2010,04,29,17,23,39.00
2010,04,29,17,24,33.90